Time,TemperatureF,DewpointF,PressureIn,WindDirection,WindDirectionDegrees,WindSpeedMPH,WindSpeedGustMPH,Humidity,HourlyPrecipIn,Conditions,Clouds,dailyrainin,SoftwareType,DateUTC
2013-04-01 00:02:00,25.0,20.0,30.17,NW,309,9.0,24.0,81,0.00,,,0.00,,2013-04-01 05:02:00,
2013-04-01 00:12:00,25.0,20.0,30.17,NW,309,9.0,24.0,81,0.00,,,0.00,,2013-04-01 05:12:00,
2013-04-01 00:22:00,25.0,19.0,30.18,NW,304,7.0,28.0,79,0.00,,,0.00,,2013-04-01 05:22:00,
2013-04-01 00:32:00,24.0,18.0,30.19,NW,308,4.0,17.0,79,0.00,,,0.00,,2013-04-01 05:32:00,
2013-04-01 00:42:00,24.0,18.0,30.19,NW,308,4.0,17.0,79,0.00,,,0.00,,2013-04-01 05:42:00,
2013-04-01 00:53:00,24.0,18.0,30.19,West,280,6.0,18.0,78,0.00,,,0.00,,2013-04-01 05:53:00,
2013-04-01 01:02:00,24.0,18.0,30.19,WNW,290,4.0,16.0,78,0.00,,,0.00,,2013-04-01 06:02:00,
2013-04-01 01:12:00,24.0,18.0,30.19,WNW,290,4.0,16.0,78,0.00,,,0.00,,2013-04-01 06:12:00,
2013-04-01 01:22:00,23.0,17.0,30.20,NW,326,3.0,18.0,78,0.00,,,0.00,,2013-04-01 06:22:00,
2013-04-01 01:33:00,23.0,17.0,30.20,NNW,331,5.0,17.0,77,0.00,,,0.00,,2013-04-01 06:33:00,
2013-04-01 01:43:00,23.0,17.0,30.20,NNW,331,5.0,17.0,77,0.00,,,0.00,,2013-04-01 06:43:00,
2013-04-01 01:53:00,23.0,17.0,30.20,NW,316,8.0,17.0,76,0.00,,,0.00,,2013-04-01 06:53:00,
2013-04-01 02:02:00,23.0,17.0,30.21,NW,306,5.0,16.0,76,0.00,,,0.00,,2013-04-01 07:02:00,
2013-04-01 02:12:00,23.0,17.0,30.21,NW,306,5.0,16.0,76,0.00,,,0.00,,2013-04-01 07:12:00,
2013-04-01 02:22:00,23.0,17.0,30.21,WNW,290,7.0,20.0,76,0.00,,,0.00,,2013-04-01 07:22:00,
2013-04-01 02:32:00,23.0,17.0,30.21,WNW,300,5.0,16.0,77,0.00,,,0.00,,2013-04-01 07:32:00,
2013-04-01 02:42:00,23.0,17.0,30.21,WNW,300,5.0,16.0,77,0.00,,,0.00,,2013-04-01 07:42:00,
2013-04-01 02:53:00,22.0,16.0,30.22,NW,323,4.0,17.0,79,0.00,,,0.00,,2013-04-01 07:53:00,
2013-04-01 03:02:00,22.0,16.0,30.22,WNW,302,4.0,20.0,79,0.00,,,0.00,,2013-04-01 08:02:00,
2013-04-01 03:12:00,22.0,16.0,30.22,WNW,302,4.0,20.0,79,0.00,,,0.00,,2013-04-01 08:12:00,
2013-04-01 03:22:00,22.0,17.0,30.22,NNW,329,4.0,15.0,80,0.00,,,0.00,,2013-04-01 08:22:00,
2013-04-01 03:32:00,22.0,17.0,30.22,West,260,5.0,17.0,80,0.00,,,0.00,,2013-04-01 08:32:00,
2013-04-01 03:43:00,22.0,17.0,30.22,West,260,5.0,17.0,80,0.00,,,0.00,,2013-04-01 08:43:00,
2013-04-01 03:53:00,22.0,16.0,30.22,NW,323,7.0,23.0,79,0.00,,,0.00,,2013-04-01 08:53:00,
2013-04-01 04:02:00,22.0,16.0,30.22,NNW,338,2.0,21.0,79,0.00,,,0.00,,2013-04-01 09:02:00,
2013-04-01 04:12:00,22.0,16.0,30.22,NNW,338,2.0,21.0,79,0.00,,,0.00,,2013-04-01 09:12:00,
2013-04-01 04:22:00,21.0,16.0,30.23,NW,311,5.0,18.0,82,0.00,,,0.00,,2013-04-01 09:22:00,
2013-04-01 04:33:00,21.0,16.0,30.23,NW,315,5.0,22.0,81,0.00,,,0.00,,2013-04-01 09:33:00,
2013-04-01 04:42:00,21.0,16.0,30.23,NW,315,5.0,22.0,81,0.00,,,0.00,,2013-04-01 09:42:00,
2013-04-01 04:53:00,21.0,16.0,30.24,NW,325,4.0,21.0,81,0.00,,,0.00,,2013-04-01 09:53:00,
2013-04-01 05:03:00,21.0,16.0,30.23,NW,323,2.0,18.0,81,0.00,,,0.00,,2013-04-01 10:03:00,
2013-04-01 05:12:00,21.0,16.0,30.23,NW,323,2.0,18.0,81,0.00,,,0.00,,2013-04-01 10:12:00,
2013-04-01 05:23:00,21.0,16.0,30.24,West,267,7.0,20.0,82,0.00,,,0.00,,2013-04-01 10:23:00,
2013-04-01 05:33:00,21.0,16.0,30.25,WSW,257,4.0,16.0,81,0.00,,,0.00,,2013-04-01 10:33:00,
2013-04-01 05:42:00,21.0,16.0,30.25,WSW,257,4.0,16.0,81,0.00,,,0.00,,2013-04-01 10:42:00,
2013-04-01 05:53:00,20.0,15.0,30.25,NNW,346,3.0,23.0,82,0.00,,,0.00,,2013-04-01 10:53:00,
2013-04-01 06:03:00,20.0,15.0,30.26,NW,305,4.0,14.0,81,0.00,,,0.00,,2013-04-01 11:03:00,
2013-04-01 06:12:00,20.0,15.0,30.26,NW,305,4.0,14.0,81,0.00,,,0.00,,2013-04-01 11:12:00,
2013-04-01 06:23:00,20.0,15.0,30.26,NW,309,4.0,15.0,81,0.00,,,0.00,,2013-04-01 11:23:00,
2013-04-01 06:33:00,20.0,15.0,30.27,NW,309,3.0,16.0,82,0.00,,,0.00,,2013-04-01 11:33:00,
2013-04-01 06:42:00,20.0,15.0,30.27,NW,309,3.0,16.0,82,0.00,,,0.00,,2013-04-01 11:42:00,
2013-04-01 06:53:00,20.0,15.0,30.27,WNW,290,5.0,18.0,81,0.00,,,0.00,,2013-04-01 11:53:00,
2013-04-01 07:02:00,19.0,14.0,30.28,NW,313,3.0,15.0,81,0.00,,,0.00,,2013-04-01 12:02:00,
2013-04-01 07:12:00,19.0,14.0,30.28,NW,313,3.0,15.0,81,0.00,,,0.00,,2013-04-01 12:12:00,
2013-04-01 07:23:00,19.0,14.0,30.28,NW,311,5.0,16.0,82,0.00,,,0.00,,2013-04-01 12:23:00,
2013-04-01 07:32:00,19.0,14.0,30.29,WNW,293,4.0,11.0,82,0.00,,,0.00,,2013-04-01 12:32:00,
2013-04-01 07:42:00,19.0,14.0,30.29,WNW,293,4.0,11.0,82,0.00,,,0.00,,2013-04-01 12:42:00,
2013-04-01 07:53:00,20.0,15.0,30.29,NNW,331,2.0,16.0,82,0.00,,,0.00,,2013-04-01 12:53:00,
2013-04-01 08:02:00,20.0,15.0,30.29,NW,305,5.0,15.0,80,0.00,,,0.00,,2013-04-01 13:02:00,
2013-04-01 08:12:00,20.0,15.0,30.29,NW,305,5.0,15.0,80,0.00,,,0.00,,2013-04-01 13:12:00,
2013-04-01 08:22:00,21.0,16.0,30.31,NW,314,4.0,13.0,79,0.00,,,0.00,,2013-04-01 13:22:00,
2013-04-01 08:32:00,21.0,15.0,30.31,NNW,327,5.0,14.0,77,0.00,,,0.00,,2013-04-01 13:32:00,
2013-04-01 08:42:00,21.0,15.0,30.31,NNW,327,5.0,14.0,77,0.00,,,0.00,,2013-04-01 13:42:00,
2013-04-01 08:52:00,22.0,16.0,30.32,NNW,331,5.0,16.0,76,0.00,,,0.00,,2013-04-01 13:52:00,
2013-04-01 09:03:00,23.0,16.0,30.32,NW,314,5.0,16.0,74,0.00,,,0.00,,2013-04-01 14:03:00,
2013-04-01 09:12:00,23.0,16.0,30.32,NW,314,5.0,16.0,74,0.00,,,0.00,,2013-04-01 14:12:00,
2013-04-01 09:22:00,23.0,16.0,30.33,NW,326,4.0,18.0,73,0.00,,,0.00,,2013-04-01 14:22:00,
2013-04-01 09:32:00,24.0,16.0,30.32,WNW,293,5.0,21.0,72,0.00,,,0.00,,2013-04-01 14:32:00,
2013-04-01 09:42:00,24.0,16.0,30.32,WNW,293,5.0,21.0,72,0.00,,,0.00,,2013-04-01 14:42:00,
2013-04-01 09:53:00,25.0,17.0,30.32,NNW,331,5.0,18.0,70,0.00,,,0.00,,2013-04-01 14:53:00,
2013-04-01 10:03:00,25.0,16.0,30.32,WNW,294,6.0,19.0,68,0.00,,,0.00,,2013-04-01 15:03:00,
2013-04-01 10:13:00,25.0,16.0,30.32,WNW,294,6.0,19.0,68,0.00,,,0.00,,2013-04-01 15:13:00,
2013-04-01 10:22:00,25.0,16.0,30.32,NW,311,8.0,22.0,68,0.00,,,0.00,,2013-04-01 15:22:00,
2013-04-01 10:34:00,26.0,17.0,30.32,NW,324,7.0,20.0,68,0.00,,,0.00,,2013-04-01 15:34:00,
2013-04-01 10:43:00,26.0,17.0,30.32,NW,324,7.0,20.0,68,0.00,,,0.00,,2013-04-01 15:43:00,
2013-04-01 10:54:00,27.0,18.0,30.32,WNW,298,11.0,25.0,69,0.00,,,0.00,,2013-04-01 15:54:00,
2013-04-01 11:03:00,27.0,18.0,30.33,NW,322,7.0,15.0,67,0.00,,,0.00,,2013-04-01 16:03:00,
2013-04-01 11:13:00,27.0,18.0,30.33,NW,322,7.0,15.0,67,0.00,,,0.00,,2013-04-01 16:13:00,
2013-04-01 11:23:00,27.0,17.0,30.33,West,267,10.0,25.0,66,0.00,,,0.00,,2013-04-01 16:23:00,
2013-04-01 11:33:00,29.0,20.0,30.33,WNW,299,4.0,19.0,68,0.00,,,0.00,,2013-04-01 16:33:00,
2013-04-01 11:42:00,29.0,20.0,30.33,WNW,299,4.0,19.0,68,0.00,,,0.00,,2013-04-01 16:42:00,
2013-04-01 11:53:00,29.0,19.0,30.33,NNW,337,5.0,21.0,66,0.00,,,0.00,,2013-04-01 16:53:00,
2013-04-01 12:03:00,29.0,19.0,30.33,West,267,7.0,23.0,66,0.00,,,0.00,,2013-04-01 17:03:00,
2013-04-01 12:12:00,29.0,19.0,30.33,West,267,7.0,23.0,66,0.00,,,0.00,,2013-04-01 17:12:00,
2013-04-01 12:22:00,30.0,20.0,30.34,WNW,302,6.0,16.0,67,0.00,,,0.00,,2013-04-01 17:22:00,
2013-04-01 12:32:00,30.0,20.0,30.34,WNW,302,6.0,16.0,67,0.00,,,0.00,,2013-04-01 17:32:00,
2013-04-01 12:42:00,30.0,20.0,30.34,WNW,302,6.0,16.0,67,0.00,,,0.00,,2013-04-01 17:42:00,
2013-04-01 12:53:00,31.0,20.0,30.34,NW,319,4.0,20.0,64,0.00,,,0.00,,2013-04-01 17:53:00,
2013-04-01 13:02:00,32.0,22.0,30.34,West,275,6.0,18.0,65,0.00,,,0.00,,2013-04-01 18:02:00,
2013-04-01 13:12:00,32.0,22.0,30.34,West,275,6.0,18.0,65,0.00,,,0.00,,2013-04-01 18:12:00,
2013-04-01 13:22:00,32.0,21.0,30.34,West,273,5.0,16.0,64,0.00,,,0.00,,2013-04-01 18:22:00,
2013-04-01 13:32:00,32.0,22.0,30.33,WNW,286,7.0,23.0,65,0.00,,,0.00,,2013-04-01 18:32:00,
2013-04-01 13:42:00,32.0,22.0,30.33,WNW,286,7.0,23.0,65,0.00,,,0.00,,2013-04-01 18:42:00,
2013-04-01 13:53:00,32.0,20.0,30.33,NW,326,6.0,16.0,61,0.00,,,0.00,,2013-04-01 18:53:00,
2013-04-01 14:03:00,32.0,22.0,30.33,NW,323,5.0,23.0,65,0.00,,,0.00,,2013-04-01 19:03:00,
2013-04-01 14:12:00,32.0,22.0,30.33,NW,323,5.0,23.0,65,0.00,,,0.00,,2013-04-01 19:12:00,
2013-04-01 14:23:00,33.0,23.0,30.33,West,274,6.0,20.0,67,0.00,,,0.00,,2013-04-01 19:23:00,
2013-04-01 14:32:00,33.0,22.0,30.33,West,271,10.0,25.0,64,0.00,,,0.00,,2013-04-01 19:32:00,
2013-04-01 14:42:00,33.0,22.0,30.33,West,271,10.0,25.0,64,0.00,,,0.00,,2013-04-01 19:42:00,
2013-04-01 14:53:00,34.0,23.0,30.33,WNW,295,6.0,24.0,63,0.00,,,0.00,,2013-04-01 19:53:00,
2013-04-01 15:02:00,34.0,22.0,30.33,NW,313,4.0,17.0,62,0.00,,,0.00,,2013-04-01 20:02:00,
2013-04-01 15:12:00,34.0,22.0,30.33,NW,313,4.0,17.0,62,0.00,,,0.00,,2013-04-01 20:12:00,
2013-04-01 15:22:00,34.0,22.0,30.32,West,278,8.0,21.0,60,0.00,,,0.00,,2013-04-01 20:22:00,
2013-04-01 15:32:00,34.0,22.0,30.32,West,270,4.0,20.0,61,0.00,,,0.00,,2013-04-01 20:32:00,
2013-04-01 15:42:00,34.0,22.0,30.32,West,270,4.0,20.0,61,0.00,,,0.00,,2013-04-01 20:42:00,
2013-04-01 15:52:00,34.0,21.0,30.32,WNW,303,5.0,15.0,59,0.00,,,0.00,,2013-04-01 20:52:00,
2013-04-01 16:02:00,36.0,23.0,30.32,NW,315,7.0,17.0,59,0.00,,,0.00,,2013-04-01 21:02:00,
2013-04-01 16:12:00,36.0,23.0,30.32,NW,315,7.0,17.0,59,0.00,,,0.00,,2013-04-01 21:12:00,
2013-04-01 16:22:00,35.0,21.0,30.31,NNW,336,6.0,19.0,57,0.00,,,0.00,,2013-04-01 21:22:00,
2013-04-01 16:32:00,35.0,22.0,30.31,WNW,290,7.0,19.0,59,0.00,,,0.00,,2013-04-01 21:32:00,
2013-04-01 16:43:00,35.0,22.0,30.31,WNW,290,7.0,19.0,59,0.00,,,0.00,,2013-04-01 21:43:00,
2013-04-01 16:53:00,35.0,22.0,30.31,NNW,327,6.0,14.0,59,0.00,,,0.00,,2013-04-01 21:53:00,
2013-04-01 17:02:00,36.0,23.0,30.31,WNW,294,3.0,16.0,58,0.00,,,0.00,,2013-04-01 22:02:00,
2013-04-01 17:12:00,36.0,23.0,30.31,WNW,294,3.0,16.0,58,0.00,,,0.00,,2013-04-01 22:12:00,
2013-04-01 17:22:00,36.0,23.0,30.31,WNW,296,3.0,14.0,58,0.00,,,0.00,,2013-04-01 22:22:00,
2013-04-01 17:33:00,35.0,20.0,30.31,West,273,5.0,13.0,54,0.00,,,0.00,,2013-04-01 22:33:00,
2013-04-01 17:43:00,35.0,20.0,30.31,West,273,5.0,13.0,54,0.00,,,0.00,,2013-04-01 22:43:00,
2013-04-01 17:52:00,35.0,21.0,30.31,NW,324,5.0,16.0,57,0.00,,,0.00,,2013-04-01 22:52:00,
2013-04-01 18:02:00,35.0,22.0,30.31,WNW,293,4.0,13.0,58,0.00,,,0.00,,2013-04-01 23:02:00,
2013-04-01 18:12:00,35.0,22.0,30.31,WNW,293,4.0,13.0,58,0.00,,,0.00,,2013-04-01 23:12:00,
2013-04-01 18:23:00,35.0,22.0,30.30,WNW,301,4.0,15.0,59,0.00,,,0.00,,2013-04-01 23:23:00,
2013-04-01 18:32:00,35.0,21.0,30.29,NNW,344,5.0,14.0,57,0.00,,,0.00,,2013-04-01 23:32:00,
2013-04-01 18:42:00,35.0,21.0,30.29,NNW,344,5.0,14.0,57,0.00,,,0.00,,2013-04-01 23:42:00,
2013-04-01 18:53:00,34.0,20.0,30.29,West,264,4.0,14.0,57,0.00,,,0.00,,2013-04-01 23:53:00,
2013-04-01 19:02:00,33.0,21.0,30.29,NNW,329,4.0,13.0,62,0.00,,,0.00,,2013-04-02 00:02:00,
2013-04-01 19:12:00,33.0,21.0,30.29,NNW,329,4.0,13.0,62,0.00,,,0.00,,2013-04-02 00:12:00,
2013-04-01 19:22:00,33.0,21.0,30.30,WNW,286,7.0,16.0,62,0.00,,,0.00,,2013-04-02 00:22:00,
2013-04-01 19:33:00,32.0,21.0,30.29,NW,312,2.0,12.0,64,0.00,,,0.00,,2013-04-02 00:33:00,
2013-04-01 19:42:00,32.0,21.0,30.29,NW,312,2.0,12.0,64,0.00,,,0.00,,2013-04-02 00:42:00,
2013-04-01 19:53:00,32.0,21.0,30.29,WNW,285,2.0,9.0,64,0.00,,,0.00,,2013-04-02 00:53:00,
2013-04-01 20:02:00,31.0,21.0,30.29,NNW,348,1.0,6.0,66,0.00,,,0.00,,2013-04-02 01:02:00,
2013-04-01 20:12:00,31.0,21.0,30.29,NNW,348,1.0,6.0,66,0.00,,,0.00,,2013-04-02 01:12:00,
2013-04-01 20:22:00,30.0,21.0,30.29,WNW,297,1.0,4.0,69,0.00,,,0.00,,2013-04-02 01:22:00,
2013-04-01 20:32:00,30.0,22.0,30.30,NW,315,2.0,6.0,71,0.00,,,0.00,,2013-04-02 01:32:00,
2013-04-01 20:42:00,30.0,22.0,30.30,NW,315,2.0,6.0,71,0.00,,,0.00,,2013-04-02 01:42:00,
2013-04-01 20:53:00,29.0,21.0,30.30,NW,313,0.0,2.0,73,0.00,,,0.00,,2013-04-02 01:53:00,
2013-04-01 21:02:00,29.0,22.0,30.30,NW,306,1.0,4.0,75,0.00,,,0.00,,2013-04-02 02:02:00,
2013-04-01 21:12:00,29.0,22.0,30.30,NW,306,1.0,4.0,75,0.00,,,0.00,,2013-04-02 02:12:00,
2013-04-01 21:22:00,29.0,22.0,30.31,WNW,290,0.0,11.0,76,0.00,,,0.00,,2013-04-02 02:22:00,
2013-04-01 21:32:00,29.0,22.0,30.31,WNW,288,0.0,4.0,76,0.00,,,0.00,,2013-04-02 02:32:00,
2013-04-01 21:42:00,29.0,22.0,30.31,WNW,288,0.0,4.0,76,0.00,,,0.00,,2013-04-02 02:42:00,
2013-04-01 21:53:00,28.0,22.0,30.32,WNW,302,1.0,5.0,78,0.00,,,0.00,,2013-04-02 02:53:00,
2013-04-01 22:02:00,28.0,22.0,30.32,WNW,290,0.0,3.0,79,0.00,,,0.00,,2013-04-02 03:02:00,
2013-04-01 22:12:00,28.0,22.0,30.32,WNW,290,0.0,3.0,79,0.00,,,0.00,,2013-04-02 03:12:00,
2013-04-01 22:22:00,28.0,23.0,30.33,WNW,290,0.0,3.0,81,0.00,,,0.00,,2013-04-02 03:22:00,
2013-04-01 22:33:00,28.0,23.0,30.33,NW,309,1.0,3.0,82,0.00,,,0.00,,2013-04-02 03:33:00,
2013-04-01 22:43:00,28.0,23.0,30.33,NW,309,1.0,3.0,82,0.00,,,0.00,,2013-04-02 03:43:00,
2013-04-01 22:53:00,27.0,23.0,30.33,WNW,297,1.0,5.0,83,0.00,,,0.00,,2013-04-02 03:53:00,
2013-04-01 23:03:00,28.0,24.0,30.33,West,279,2.0,8.0,83,0.00,,,0.00,,2013-04-02 04:03:00,
2013-04-01 23:13:00,28.0,24.0,30.33,West,279,2.0,8.0,83,0.00,,,0.00,,2013-04-02 04:13:00,
2013-04-01 23:23:00,27.0,23.0,30.33,West,279,1.0,3.0,84,0.00,,,0.00,,2013-04-02 04:23:00,
2013-04-01 23:32:00,27.0,23.0,30.33,West,279,1.0,3.0,84,0.00,,,0.00,,2013-04-02 04:32:00,
2013-04-01 23:43:00,27.0,23.0,30.33,West,279,1.0,3.0,84,0.00,,,0.00,,2013-04-02 04:43:00,
2013-04-01 23:53:00,27.0,23.0,30.33,WNW,287,2.0,6.0,86,0.00,,,0.00,,2013-04-02 04:53:00,